Preview of NWS' New Version of Forecast
This preview is not operational and should not be used for support decisions.

Regional Weather Roundup (RWR)

Issued by National Weather Service (NWS)

                            
000
ASCA42 TJSJ 231610
RWRPR 
PUERTO RICO/U.S. VIRGIN ISLANDS HOURLY WEATHER ROUNDUP
NATIONAL WEATHER SERVICE SAN JUAN PR
1200 PM AST SAT FEB 23 2019

PRZ001>002-007>008-010-231700-
PUERTO RICO
  
CITY           SKY/WX    TMP DP  RH WIND       PRES   REMARKS
SAN JUAN LMM   MOSUNNY   82  70  65 E18G25    30.15F                  
AGUADILLA      CLOUDY    82 N/A N/A E18       30.16F                  
$$

VIZ001>002-231700-
U.S. VIRGIN ISLANDS
  
CITY           SKY/WX    TMP DP  RH WIND       PRES   REMARKS
CHARLOTTE AMA  PTSUNNY   81  68  65 SE16      30.14F                  
CHRISTIANSTED  MOSUNNY   88  63  42 E23G30    30.14F                  
$$

HOURLY WEATHER ROUNDUP FOR THE NEWS MEDIA
  
CITY           SKY/WX    TMP DP  RH WIND       PRES   REMARKS
ORLANDO        FAIR      81  70  69 S12       30.17F                  
NEW YORK       CLOUDY    38  25  59 SE9       30.50S WCI  31          
NEWARK         CLOUDY    38  22  52 NE3       30.49S                  
CHICAGO        RAIN      36  32  85 N6        29.97F FOG     WCI  31  
HARTFORD       FAIR      38  25  59 CALM      30.47F                  
BOSTON         CLOUDY    36  21  54 SE5       30.48F WCI  32          
DALLAS         MOSUNNY   60  37  42 W17G25    29.84R                  
PHILADELPHIA   CLOUDY    39  26  59 NE7       30.47F WCI  34          
LOS ANGELES    MOSUNNY   49  29  46 NE8       30.31R                  
WASHINGTON DC  LGT RAIN  39  29  67 E3        30.44S